Flag for Germany Weather past 2 weeks in Mannheim, Baden-Württemberg, Germany

Now
48 °F

Light rain. Passing clouds.


Feels Like: 45 °F
Forecast: 38 / 46 °F
Wind: 7 mph from North

Location: Baden Wurttemberg - Neuostheim

Current Time: Dec 19, 2014 at 9:28:18 PM

Latest Report: Dec 19, 2014 at 8:50 PM


Visibility: N/A

Pressure: 30.07 "Hg

Humidity: 94%

Dew point: 46 °F

Location of MannheimLocation

Historic Weather in Mannheim — Graph

°F

Mannheim temperature yesterday

Maximum temperature yesterday: 55 °F (at 6:20 PM)
Minimum temperature yesterday: 48 °F (at 5:20 AM)
Average temperature yesterday: 51 °F

Past Weeks' High & Low Weather Summary

 TemperatureHumidityPressure
High55 °F (Dec 18, 6:20 PM)100% (Dec 6, 7:50 AM)30.45 "Hg (Dec 6, 7:50 AM)
Low34 °F (Dec 8, 8:50 PM)57% (Dec 8, 1:50 PM)29.68 "Hg (Dec 12, 4:20 PM)
Average44 °F85%30.04 "Hg
* Reported Dec 4 8:20 PM — Dec 19 8:20 PM, Mannheim, Weather by CustomWeather, © 2014

Note: Actual official high and low records may vary slightly from our data, if they occured in-between our weather recording intervals... More about our weather records

Advertising

Mannheim weather history for previous 24 hours

 ConditionsComfort  
Time TempWeatherWind HumidityBarometerVisibility
8:20 PM
Dec 19
50 °FLight rain. Partly cloudy.7 mph94%30.07 "HgN/A
7:50 PM52 °FLight rain. Passing clouds.6 mph94%30.04 "Hg5 mi
7:20 PM52 °FLight rain. Passing clouds.13 mph94%30.01 "Hg5 mi
6:50 PM52 °FLight rain. Overcast.13 mph88%30.01 "HgN/A
6:20 PM52 °FPassing clouds.13 mph88%30.01 "HgN/A
5:50 PM52 °FLight rain. Overcast.13 mph88%29.98 "HgN/A
5:20 PM52 °FLight rain. Overcast.13 mph88%30.01 "HgN/A
4:50 PM52 °FLight rain. Mostly cloudy.14 mph88%29.98 "HgN/A
4:20 PM52 °FLight rain. Mostly cloudy.14 mph88%29.98 "HgN/A
3:50 PM54 °FOvercast.14 mph77%29.98 "HgN/A
3:20 PM54 °FPartly sunny.14 mph77%30.01 "HgN/A
2:50 PM54 °FPartly sunny.12 mph77%30.01 "HgN/A
2:20 PM54 °FMostly cloudy.14 mph77%30.01 "HgN/A
1:50 PM54 °FOvercast.13 mph77%30.01 "HgN/A
1:20 PM54 °FScattered showers. Partly sunny.15 mph77%30.01 "HgN/A
12:50 PM54 °FScattered showers. Overcast.13 mph77%30.04 "HgN/A
12:20 PM54 °FPartly sunny.14 mph77%30.04 "HgN/A
11:50 AM54 °FScattered showers. Partly sunny.15 mph72%30.04 "HgN/A
11:20 AM52 °FScattered showers. Overcast.14 mph77%30.04 "HgN/A
10:50 AM52 °FScattered showers. Overcast.15 mph82%30.04 "HgN/A
10:20 AM52 °FScattered showers. Mostly cloudy.13 mph82%30.07 "HgN/A
9:50 AM52 °FScattered showers. Overcast.10 mph82%30.07 "HgN/A
9:20 AM54 °FOvercast.14 mph72%30.07 "HgN/A
8:50 AM52 °FScattered showers. More clouds than sun.12 mph82%30.07 "HgN/A
8:20 AM54 °FScattered showers. Overcast.9 mph72%30.07 "HgN/A
7:50 AM52 °FMostly cloudy.9 mph82%30.07 "HgN/A
7:20 AM52 °FOvercast.12 mph82%30.07 "HgN/A
6:50 AM54 °FOvercast.12 mph77%30.07 "HgN/A
6:20 AM52 °FOvercast.13 mph82%30.07 "HgN/A
5:50 AM52 °FOvercast.13 mph88%30.07 "HgN/A
5:20 AM52 °FOvercast.9 mph82%30.07 "HgN/A
1:50 AM54 °FOvercast.12 mph77%30.09 "HgN/A
1:20 AM54 °FOvercast.13 mph77%30.09 "HgN/A
12:50 AM54 °FOvercast.13 mph72%30.12 "HgN/A
12:20 AM55 °FOvercast.15 mph67%30.09 "HgN/A
11:50 PM
Dec 18
55 °FMostly cloudy.14 mph67%30.09 "HgN/A
11:20 PM55 °FOvercast.12 mph72%30.09 "HgN/A
10:50 PM55 °FOvercast.15 mph72%30.09 "HgN/A
Weather by CustomWeather, © 2014

See weather overviewHow to use our weather pages